Flag for Russia Weather past 2 weeks in Nizhny Novgorod, Russia

Now
64 °F

Partly sunny.


Feels Like: 64 °F
Forecast: 47 / 64 °F
Wind: 6 mph from Southeast

Location: Nizhny Novgorod/Strigino

Current Time: Sep 1, 2014 at 7:27:05 PM

Latest Report: Sep 1, 2014 at 7:00 PM


Visibility: N/A

Pressure: 30.21 "Hg

Humidity: 56%

Dew point: 48 °F

Location of Nizhny NovgorodLocation

Historic Weather in Nizhny Novgorod — Graph

°F

Nizhny Novgorod temperature yesterday

Maximum temperature yesterday: 61 °F (at 4:00 PM)
Minimum temperature yesterday: 52 °F (at 12:00 AM)
Average temperature yesterday: 55 °F

Past Weeks' High & Low Weather Summary

 TemperatureHumidityPressure
High84 °F (Aug 22, 1:00 PM)100% (Aug 18, 4:30 AM)30.24 "Hg (Aug 18, 4:30 AM)
Low43 °F (Aug 24, 5:00 AM)27% (Aug 22, 1:30 PM)29.56 "Hg (Aug 29, 9:30 AM)
Average60 °F75%29.89 "Hg
* Reported Aug 17 6:00 PM — Sep 1 6:30 PM, Nizhny Novgorod, Weather by CustomWeather, © 2014

Note: Actual official high and low records may vary slightly from our data, if they occured in-between our weather recording intervals... More about our weather records

Advertising

Nizhny Novgorod weather history for previous 24 hours

 ConditionsComfort  
Time TempWeatherWind HumidityBarometerVisibility
6:30 PM
Sep 1
64 °FBroken clouds.6 mph56%30.21 "HgN/A
6:00 PM64 °FBroken clouds.6 mph56%30.21 "HgN/A
5:30 PM64 °FBroken clouds.6 mph56%30.21 "HgN/A
5:00 PM66 °FBroken clouds.6 mph49%30.21 "HgN/A
4:30 PM66 °FBroken clouds.6 mph46%30.21 "HgN/A
4:00 PM66 °FBroken clouds.6 mph49%30.21 "HgN/A
3:30 PM66 °FPartly sunny.6 mph49%30.21 "HgN/A
3:00 PM66 °FPartly sunny.6 mph49%30.21 "Hg6 mi
2:30 PM66 °FPartly sunny.6 mph49%30.21 "HgN/A
2:00 PM66 °FPartly sunny.6 mph52%30.24 "Hg6 mi
1:30 PM64 °FPartly sunny.6 mph60%30.24 "HgN/A
1:00 PM64 °FPartly sunny.6 mph56%30.24 "HgN/A
12:30 PM64 °FPartly sunny.8 mph60%30.24 "HgN/A
12:00 PM64 °FPartly sunny.6 mph56%30.24 "HgN/A
11:30 AM61 °FPartly sunny.6 mph68%30.24 "HgN/A
11:00 AM61 °FPartly sunny.3 mph68%30.24 "Hg6 mi
10:30 AM61 °FPartly sunny.1 mph68%30.24 "Hg6 mi
10:00 AM61 °FScattered clouds.3 mph68%30.21 "HgN/A
9:30 AM61 °FScattered clouds.3 mph72%30.21 "HgN/A
9:00 AM57 °FPassing clouds.1 mph88%30.21 "Hg6 mi
8:30 AM55 °FSunny.No wind94%30.21 "Hg5 mi
8:00 AM52 °FPartly sunny.No wind94%30.21 "Hg4 mi
7:30 AM48 °FFog.No wind94%30.21 "Hg2 mi
7:00 AM45 °FFog.No wind100%30.21 "Hg1 mi
6:30 AM43 °FFog.No wind100%30.18 "Hg1 mi
6:00 AM45 °FFog.No wind93%30.18 "Hg1 mi
5:30 AM45 °FFog.No wind93%30.18 "Hg0 mi
5:00 AM46 °FFog.No wind93%30.18 "Hg1 mi
4:30 AM48 °FFog.No wind100%30.18 "Hg2 mi
4:00 AM50 °FFog.No wind94%30.15 "Hg3 mi
3:30 AM50 °FFog.No wind94%30.15 "Hg3 mi
3:00 AM50 °FFog.No wind94%30.15 "Hg3 mi
2:30 AM50 °FFog.No wind94%30.15 "Hg3 mi
2:00 AM50 °FFog.No wind94%30.15 "Hg3 mi
1:30 AM52 °FPassing clouds.No wind94%30.15 "Hg4 mi
1:00 AM54 °FClear.1 mph88%30.12 "Hg10 mi
12:30 AM52 °FClear.1 mph94%30.12 "Hg10 mi
12:00 AM54 °FClear.No wind88%30.12 "Hg10 mi
11:30 PM
Aug 31
54 °FClear.1 mph88%30.12 "Hg10 mi
11:00 PM54 °FClear.3 mph88%30.12 "Hg10 mi
10:30 PM54 °FClear.1 mph94%30.12 "Hg10 mi
10:00 PM54 °FClear.3 mph88%30.09 "Hg10 mi
9:30 PM54 °FClear.3 mph94%30.09 "Hg10 mi
9:00 PM52 °FSunny.3 mph94%30.09 "Hg10 mi
8:30 PM54 °FPartly sunny.3 mph88%30.09 "HgN/A
8:00 PM57 °FBroken clouds.1 mph82%30.09 "HgN/A
7:30 PM59 °FBroken clouds.3 mph72%30.09 "HgN/A
7:00 PM59 °FBroken clouds.3 mph72%30.07 "HgN/A
Weather by CustomWeather, © 2014

See weather overviewHow to use our weather pages